Location: Helsinki
(60.1699°N, 24.9384°E)
Time: 23:26:19
(UTC+02:00)

Altair - Pass Details

Date: 02 November 2020
Orbit: 1502 x 1682 km, 47.2° (Epoch: 25 November)

Event Time Altitude Azimuth Distance (km) Brightness Sun altitude
Rises 03:51:43 0° 203° (SSW) 4,636 - -29.0°
Reaches altitude 10° 03:55:35 10° 189° (S) 3,671 - -28.5°
Exits shadow 03:56:32 13° 184° (S) 3,472 9.1 -28.4°
Maximum altitude 04:02:04 22° 143° (SE) 2,880 9.0 -27.8°
Drops below altitude 10° 04:08:41 10° 98° (E) 3,759 10.3 -27.0°
Sets 04:12:41 0° 85° (E) 4,776 11.3 -26.5°
